EDT,Max TemperatureF,Mean TemperatureF,Min TemperatureF,Max Dew PointF,MeanDew PointF,Min DewpointF,Max Humidity, Mean Humidity, Min Humidity, Max Sea Level PressureIn, Mean Sea Level PressureIn, Min Sea Level PressureIn, Max VisibilityMiles, Mean VisibilityMiles, Min VisibilityMiles, Max Wind SpeedMPH, Mean Wind SpeedMPH, Max Gust SpeedMPH,PrecipitationIn, CloudCover, Events, WindDirDegrees
2013-7-1,84,80,75,77,75,73,94,89,79,29.99,29.89,29.81,10,10,7,14,8,22,0.00,5,,187
2013-7-2,87,80,73,79,74,72,100,93,66,30.11,30.04,29.98,10,8,0,16,4,25,0.00,5,,166
2013-7-3,93,83,73,79,76,73,100,87,59,30.15,30.11,30.07,10,10,3,18,5,28,0.00,3,,137
2013-7-4,89,81,73,81,76,73,100,88,62,30.18,30.13,30.10,10,9,1,16,7,25,0.00,3,,149
2013-7-5,91,82,73,81,76,72,100,88,62,30.19,30.15,30.10,10,9,4,18,4,24,0.00,1,,135
2013-7-6,93,83,73,79,75,73,100,80,56,30.16,30.12,30.07,10,9,5,16,6,22,0.00,1,,126
2013-7-7,93,84,75,79,75,73,100,76,52,30.16,30.13,30.08,10,10,7,15,4,18,0.00,2,,134
2013-7-8,93,84,75,79,75,73,100,77,52,30.19,30.15,30.10,10,10,7,9,2,,0.00,1,,131
2013-7-9,93,84,75,79,76,73,100,86,59,30.19,30.15,30.09,10,9,1,13,1,18,0.00,2,,166
2013-7-10,89,82,75,79,74,36,100,87,20,30.11,30.06,29.99,10,9,1,13,2,26,0.00,1,,233
2013-7-11,93,83,73,79,74,36,100,81,25,30.02,29.96,29.87,10,10,1,16,2,,0.00,2,,220
2013-7-12,84,78,73,79,76,72,100,93,74,29.94,29.90,29.87,10,9,5,9,3,,0.00,3,,215
2013-7-13,84,78,73,79,75,72,100,95,79,30.01,29.96,29.91,10,9,5,10,3,,0.00,3,,56
2013-7-14,89,80,71,79,75,72,100,86,66,30.15,30.07,30.00,10,9,4,14,4,17,0.00,3,,111
2013-7-15,91,82,73,79,76,73,100,86,59,30.20,30.16,30.12,10,9,5,18,5,22,0.00,2,,79
2013-7-16,93,84,75,79,76,73,100,81,52,30.24,30.21,30.18,10,9,4,14,5,21,0.00,2,,83
2013-7-17,95,84,73,79,74,72,100,76,49,30.24,30.18,30.10,10,9,4,10,3,,0.00,2,,88
2013-7-18,93,83,73,77,74,72,100,76,49,30.16,30.12,30.04,10,9,4,9,2,,0.00,1,,133
2013-7-19,91,82,73,79,75,72,100,84,55,30.13,30.08,30.04,10,10,5,12,2,21,0.00,2,,175
2013-7-20,89,82,75,75,75,73,100,89,62,30.09,30.06,30.00,10,10,0,15,6,29,0.00,4,,208
2013-7-21,87,80,73,77,75,73,100,93,70,30.08,30.04,30.01,10,9,7,9,5,,0.00,1,,223
2013-7-22,89,82,75,75,75,73,100,91,62,30.08,30.04,30.01,10,10,7,12,4,,0.00,2,,233
2013-7-23,93,84,75,79,76,73,94,83,63,30.01,29.96,29.86,10,10,10,18,8,23,0.00,4,,255
2013-7-24,91,82,73,79,74,72,100,77,59,29.89,29.86,29.80,10,10,7,16,7,28,0.00,3,,267
2013-7-25,91,82,73,79,76,73,100,86,59,29.97,29.90,29.83,10,9,4,10,4,,0.00,4,,254
2013-7-26,93,84,75,79,76,73,100,84,59,30.03,29.99,29.95,10,8,2,13,3,17,0.00,1,,124
2013-7-27,91,84,78,79,78,73,100,86,63,30.02,29.96,29.89,10,8,0,17,4,23,0.00,4,,131
2013-7-28,93,84,75,77,75,72,100,77,49,30.05,29.98,29.93,10,10,7,9,2,,0.00,1,,201
2013-7-29,95,84,73,81,76,73,100,77,53,30.17,30.08,30.02,10,10,7,12,3,,0.00,2,,211
2013-7-30,96,84,73,81,75,72,100,83,50,30.18,30.14,30.08,10,10,5,10,4,18,0.00,1,,249
2013-7-31,93,84,75,81,76,73,100,91,56,30.13,30.08,30.02,10,9,1,22,2,25,0.00,3,,220